Temp
64 63 64 64 64 64 64 64 64 64 64 64 64 64 64 64 64 82 89 91 92 82 85 94 91 90 90 86 88 88 81 78 77 77 80 87 83 85 88 84 85 86 86 91 92
63 63 63 63 64 64 64 63 64 64 64 64 64 64 64 64 86 91 88 83 82 83 96 91 87 88 87 85 83 85 80 78 83 84 84 85 83 83 83 83 81 83 87 92 90
63 63 63 63 64 63 64 63 64 63 63 63 64 64 64 70 87 95 83 83 83 85 99 95 92 86 86 89 86 85 74 82 83 87 88 85 80 87 83 80 84 82 84 87 87
62 62 62 62 63 63 63 63 63 63 63 63 64 64 64 83 82 96 84 83 83 98 95 91 89 84 83 82 88 80 81 84 85 87 87 83 85 82 82 83 87 88 88 88 86
62 62 62 62 62 62 62 62 63 62 62 63 64 65 77 88 91 96 83 85 95 96 92 90 87 87 84 85 85 82 83 84 86 87 88 87 82 81 79 83 88 89 88 87 88
61 61 61 61 62 62 62 61 61 62 62 63 65 64 85 86 96 100 100 98 99 96 93 91 89 91 84 84 83 83 82 84 86 86 86 83 81 83 80 85 85 86 86 88 89
61 61 61 61 61 61 61 61 61 62 63 64 65 76 88 89 98 100 100 98 99 97 91 89 94 91 87 84 87 82 76 83 83 85 82 86 78 77 82 85 83 85 87 88 89
60 60 61 60 60 61 60 60 61 62 63 64 66 82 90 95 101 97 99 97 99 98 93 92 96 92 89 88 83 78 78 72 82 83 83 81 74 78 83 83 83 84 85 86 88
60 60 60 59 59 59 59 60 62 63 64 66 80 87 87 87 92 98 100 95 97 96 95 93 92 89 87 83 76 80 74 74 76 83 82 81 75 80 84 85 83 84 85 86 87
59 59 59 59 58 58 58 60 62 65 72 81 85 85 89 89 94 94 98 97 93 92 91 89 89 87 86 82 69 73 76 76 75 80 81 79 78 82 84 85 84 84 86 86 87
59 59 59 58 57 57 65 80 82 82 86 89 90 87 89 94 97 92 96 93 92 89 85 88 83 83 84 85 84 81 78 76 79 81 79 78 79 80 83 84 84 85 87 88 89
59 59 58 58 56 56 72 87 88 89 85 88 88 89 93 96 87 91 97 88 86 83 86 83 82 87 87 84 82 80 77 76 78 80 79 78 78 82 83 84 85 85 87 89 91
58 58 57 57 57 65 86 89 95 94 86 84 89 91 91 94 90 90 92 90 85 84 86 82 85 89 86 84 81 82 78 78 76 79 81 77 75 78 83 85 86 88 90 92 92
58 57 56 57 62 89 88 92 95 93 82 80 85 90 92 94 88 96 97 91 86 83 85 85 89 85 87 84 85 79 83 80 77 76 74 81 71 75 82 81 84 87 89 91 92
57 56 55 53 83 88 90 95 94 91 69 84 85 96 94 90 91 86 97 91 83 86 86 82 85 84 83 82 85 78 83 82 80 78 76 76 75 76 83 79 82 86 90 92 94
56 55 55 62 76 89 93 93 92 77 65 80 87 85 86 90 91 87 89 94 94 87 86 85 95 89 88 86 85 83 82 81 80 81 74 76 77 76 78 82 86 89 91 92 94
55 54 58 79 91 91 92 90 79 74 84 79 82 86 87 85 86 88 83 82 82 77 79 87 87 91 89 84 85 83 82 75 71 72 70 79 75 82 87 89 90 89 91 93 96
53 54 64 80 90 87 89 87 72 78 80 86 84 85 82 87 86 86 84 82 88 86 82 78 75 87 91 87 83 82 82 73 62 67 73 75 73 80 91 93 91 95 95 95 95
52 78 86 90 87 87 89 81 78 80 84 83 84 81 81 85 85 85 85 85 89 89 78 79 78 88 89 90 88 81 78 84 78 78 71 80 82 87 89 89 89 92 92 93 95
83 91 90 88 89 90 87 69 83 87 87 86 79 83 78 83 81 83 84 89 88 92 94 86 76 88 88 89 88 85 88 76 77 65 65 76 75 79 82 85 87 88 90 93 94
85 90 91 95 91 89 82 84 85 91 88 84 83 82 83 82 85 83 83 89 91 92 93 91 85 82 85 84 84 83 82 83 83 78 69 71 75 87 86 87 87 88 89 92 94
89 86 94 95 85 90 85 85 67 89 90 87 87 86 84 85 83 83 83 88 92 94 86 92 88 80 83 92 91 89 86 86 77 72 75 75 78 89 89 90 89 88 89 90 93
84 87 97 94 81 84 86 85 85 87 88 86 85 87 88 84 79 85 85 90 90 90 87 92 83 76 80 88 89 85 90 89 88 82 76 71 77 86 90 88 89 87 86 87 89
83 80 88 92 88 82 79 82 81 88 86 87 86 87 85 84 88 82 84 89 89 91 75 84 88 83 76 81 88 83 86 87 87 78 78 80 82 83 85 87 88 87 86 87 87
77 72 69 76 80 77 80 79 79 80 86 87 84 84 81 79 82 82 87 89 90 77 84 89 82 86 87 89 88 86 86 86 83 85 79 82 83 85 88 89 90 90 89 87 87
71 66 73 76 78 76 68 78 75 76 78 82 80 83 83 79 82 80 84 87 86 87 87 91 81 84 80 87 87 84 88 88 87 86 85 85 83 96 94 93 90 89 87 86 87
69 72 67 64 76 75 75 69 72 75 80 82 79 77 79 82 83 87 91 91 91 89 88 88 85 81 76 85 84 77 85 87 89 91 89 83 87 91 90 89 89 89 89 88 89
MSLP
1015.39 1015.16 1014.88 1014.67 1014.45 1014.52 1014.59 1014.53 1014.43 1014.30 1014.20 1014.07 1013.94 1013.78 1013.53 1013.27 1012.82 1012.28 1010.34 1009.55 1009.37 1009.88 1009.94 1009.61 1009.72 1009.42 1009.32 1008.87 1008.55 1008.22 1006.69 1005.80 1006.14 1006.29 1006.53 1007.21 1007.61 1008.68 1009.08 1009.22 1009.54 1010.10 1009.99 1010.14 1011.62
1015.34 1015.08 1014.81 1014.58 1014.32 1014.36 1014.47 1014.40 1014.33 1014.24 1014.12 1013.94 1013.85 1013.65 1013.40 1013.05 1011.52 1009.95 1009.26 1009.47 1009.53 1009.63 1009.10 1009.00 1008.92 1009.07 1008.57 1008.31 1008.37 1007.27 1006.42 1006.32 1006.89 1006.72 1006.50 1007.15 1007.77 1008.39 1008.76 1009.06 1009.60 1010.16 1010.56 1010.73 1011.83
1015.35 1015.03 1014.77 1014.52 1014.28 1014.26 1014.33 1014.30 1014.18 1014.09 1014.03 1013.92 1013.81 1013.54 1013.21 1012.80 1010.52 1008.10 1008.95 1009.35 1009.44 1009.45 1008.58 1008.57 1008.68 1008.91 1007.85 1007.70 1007.49 1007.14 1007.18 1007.11 1006.98 1006.83 1006.68 1007.08 1008.18 1008.34 1008.51 1008.73 1008.90 1009.60 1010.39 1011.24 1011.93
1015.39 1015.05 1014.76 1014.51 1014.30 1014.25 1014.29 1014.18 1014.13 1013.97 1013.86 1013.85 1013.72 1013.42 1013.01 1011.84 1008.82 1008.22 1009.11 1009.36 1009.47 1008.73 1008.72 1008.66 1008.49 1008.16 1007.50 1007.02 1007.03 1007.07 1007.54 1007.25 1007.13 1007.01 1006.79 1007.42 1008.19 1008.53 1008.84 1009.01 1009.47 1009.62 1010.42 1011.13 1011.65
1015.45 1015.09 1014.78 1014.49 1014.31 1014.29 1014.29 1014.14 1014.02 1013.93 1013.82 1013.79 1013.55 1013.24 1012.53 1010.14 1008.30 1008.44 1009.04 1009.40 1009.27 1008.92 1008.41 1008.28 1008.02 1007.54 1006.74 1006.89 1007.17 1007.01 1007.40 1007.51 1007.39 1007.19 1007.15 1007.74 1008.07 1008.68 1009.40 1009.66 1009.56 1009.75 1010.57 1011.05 1011.48
1015.48 1015.11 1014.78 1014.51 1014.34 1014.30 1014.27 1014.16 1014.05 1013.92 1013.78 1013.66 1013.40 1013.14 1011.35 1008.77 1008.61 1008.50 1008.51 1008.83 1008.33 1008.37 1008.27 1008.50 1007.93 1007.56 1007.48 1007.25 1007.30 1007.64 1007.85 1007.60 1007.44 1007.40 1007.57 1007.63 1008.35 1008.69 1009.75 1009.86 1009.90 1010.28 1010.68 1011.03 1011.36
1015.54 1015.12 1014.79 1014.52 1014.37 1014.32 1014.31 1014.21 1014.01 1013.74 1013.65 1013.63 1013.41 1012.66 1010.20 1008.98 1008.58 1008.53 1008.40 1008.26 1008.34 1008.25 1008.17 1008.70 1008.08 1007.46 1007.47 1007.19 1007.79 1008.11 1008.02 1007.53 1007.55 1007.49 1007.67 1007.73 1008.00 1008.85 1009.75 1009.92 1010.14 1010.32 1010.62 1011.07 1011.48
1015.60 1015.13 1014.76 1014.58 1014.41 1014.30 1014.22 1014.07 1013.87 1013.59 1013.54 1013.47 1013.24 1011.87 1008.89 1009.06 1008.66 1008.69 1008.49 1008.31 1008.44 1008.42 1008.57 1008.71 1008.19 1007.51 1007.20 1007.71 1007.70 1007.69 1007.95 1007.45 1007.23 1007.59 1007.74 1008.18 1007.51 1009.09 1009.73 1009.86 1009.97 1010.35 1010.86 1011.35 1011.54
1015.63 1015.14 1014.75 1014.62 1014.47 1014.33 1014.12 1013.99 1013.69 1013.39 1013.33 1013.19 1012.42 1010.64 1008.71 1009.52 1008.74 1008.43 1008.17 1007.75 1008.08 1008.23 1008.31 1008.51 1008.22 1007.25 1007.46 1006.60 1006.92 1006.85 1005.84 1006.60 1006.87 1007.46 1007.38 1007.62 1007.47 1008.84 1009.52 1009.58 1009.71 1010.29 1010.65 1011.11 1011.49
1015.57 1015.14 1014.82 1014.59 1014.50 1014.32 1013.99 1013.82 1013.60 1013.20 1012.87 1012.17 1011.37 1010.10 1009.04 1008.07 1008.20 1008.54 1008.52 1008.07 1007.76 1007.72 1007.47 1007.55 1007.02 1006.20 1006.29 1005.87 1005.26 1005.65 1005.25 1005.91 1006.08 1006.91 1007.21 1007.07 1007.40 1008.43 1009.09 1009.20 1009.37 1009.95 1010.18 1010.58 1010.81
1015.47 1015.00 1014.67 1014.52 1014.44 1014.26 1013.51 1013.00 1012.88 1011.80 1010.69 1009.03 1008.54 1008.42 1008.05 1008.31 1008.47 1008.36 1008.30 1008.11 1007.74 1007.53 1006.27 1006.45 1005.60 1004.50 1004.93 1005.18 1005.28 1005.52 1005.52 1005.48 1006.04 1006.65 1006.81 1006.66 1006.94 1007.90 1008.59 1008.92 1009.01 1009.35 1009.58 1009.79 1010.17
1015.46 1014.96 1014.65 1014.43 1014.36 1014.22 1013.47 1010.79 1009.84 1009.62 1008.45 1008.67 1008.48 1008.25 1008.03 1007.66 1007.65 1007.84 1008.29 1007.74 1007.25 1006.30 1006.17 1005.94 1004.27 1004.73 1005.07 1005.13 1005.11 1005.08 1005.11 1005.26 1006.06 1006.51 1006.76 1006.48 1006.39 1007.12 1007.93 1008.24 1008.53 1008.82 1008.93 1009.12 1009.40
1015.47 1014.89 1014.54 1014.31 1014.20 1013.74 1011.49 1009.90 1009.53 1009.18 1007.64 1007.95 1007.61 1007.15 1007.43 1007.72 1006.62 1007.09 1007.88 1007.26 1006.75 1005.88 1005.22 1004.74 1004.25 1004.56 1004.48 1004.11 1004.12 1003.96 1004.49 1004.69 1005.27 1005.91 1006.20 1006.13 1005.77 1006.27 1007.08 1007.59 1008.01 1008.25 1008.43 1008.51 1008.77
1015.27 1014.80 1014.41 1014.13 1014.20 1011.21 1010.02 1009.54 1009.46 1009.21 1006.52 1007.19 1006.88 1006.62 1007.14 1006.82 1006.53 1006.85 1007.41 1006.97 1006.41 1005.61 1005.10 1004.35 1004.31 1004.39 1003.74 1003.46 1003.86 1003.38 1004.57 1004.75 1005.06 1005.02 1003.89 1005.09 1003.68 1005.10 1005.70 1006.62 1007.08 1007.33 1007.63 1007.76 1008.09
1014.74 1014.29 1013.98 1014.02 1011.82 1010.20 1009.58 1009.44 1009.25 1008.82 1005.58 1006.28 1006.39 1006.87 1006.41 1006.06 1006.00 1007.10 1007.20 1007.01 1006.19 1005.20 1005.28 1004.14 1003.73 1003.80 1003.57 1004.03 1004.18 1004.32 1004.52 1004.25 1004.45 1004.15 1004.21 1003.85 1003.37 1003.72 1004.43 1004.95 1005.57 1006.07 1006.42 1006.89 1007.31
1014.10 1013.60 1013.36 1013.36 1011.95 1009.70 1009.64 1009.36 1008.85 1007.05 1005.06 1005.24 1005.82 1005.96 1005.82 1005.46 1005.27 1006.61 1006.69 1006.88 1005.97 1005.36 1005.45 1004.55 1003.97 1004.00 1003.53 1004.12 1004.25 1004.56 1004.15 1004.11 1004.10 1003.30 1002.06 1002.78 1002.57 1001.97 1002.98 1003.04 1003.82 1004.77 1005.33 1005.89 1006.41
1013.52 1012.96 1012.93 1011.15 1009.36 1009.69 1009.57 1008.53 1006.31 1004.27 1004.81 1004.51 1004.49 1004.90 1004.63 1004.51 1004.76 1005.18 1005.73 1005.82 1004.98 1004.34 1003.28 1002.73 1002.63 1003.16 1003.91 1003.50 1004.20 1004.13 1003.16 1001.72 1001.46 1001.32 1001.37 1002.52 1002.29 1000.89 1001.47 1002.07 1002.43 1003.39 1004.36 1005.09 1005.63
1013.13 1012.86 1011.97 1010.72 1010.17 1009.89 1008.97 1006.59 1004.47 1004.34 1003.71 1004.14 1004.09 1004.11 1003.85 1003.79 1004.05 1004.30 1004.35 1004.18 1004.30 1003.87 1003.05 1002.21 1002.00 1002.46 1002.96 1003.04 1002.84 1003.03 1002.94 1002.21 1001.37 1001.17 1001.21 1002.35 1001.14 1001.20 1001.26 1001.91 1002.58 1002.54 1003.52 1004.32 1004.93
1012.69 1011.55 1010.21 1009.65 1009.90 1009.79 1007.61 1004.64 1004.02 1003.85 1003.87 1003.44 1003.79 1003.29 1003.31 1003.57 1003.65 1003.72 1003.48 1002.97 1002.96 1003.38 1003.05 1001.95 1001.94 1002.66 1002.93 1002.99 1003.18 1002.86 1002.63 1002.58 1001.77 1001.57 1001.27 1000.63 1000.50 1001.10 1001.54 1001.97 1002.59 1002.68 1003.17 1003.59 1004.08
1011.25 1009.42 1009.17 1009.51 1009.62 1008.68 1006.26 1004.86 1003.96 1004.06 1003.85 1003.56 1002.59 1002.69 1002.46 1002.91 1003.32 1003.05 1002.45 1002.20 1002.25 1002.53 1002.76 1002.02 1001.84 1001.76 1002.32 1003.01 1003.14 1002.99 1002.73 1002.14 1001.68 1000.94 1000.30 999.86 1000.20 1000.19 1001.22 1001.60 1002.31 1002.69 1002.98 1003.28 1003.96
1010.67 1008.28 1008.97 1009.20 1009.13 1007.10 1004.83 1004.15 1004.11 1003.82 1004.06 1003.37 1002.67 1002.46 1002.24 1002.26 1002.41 1002.20 1001.84 1001.83 1001.89 1001.84 1002.45 1001.99 1001.86 1001.44 1002.16 1001.67 1001.12 1002.08 1001.62 1001.70 1001.40 1001.40 1000.87 999.69 999.87 1000.93 1000.96 1001.60 1002.13 1002.77 1003.17 1003.34 1003.87
1009.98 1007.69 1008.67 1008.68 1007.30 1006.23 1004.76 1004.73 1004.93 1003.76 1003.87 1003.61 1003.45 1002.82 1002.36 1002.23 1002.09 1001.92 1001.65 1001.63 1002.08 1001.95 1002.02 1002.07 1001.37 1000.66 1000.50 1000.47 1001.39 1001.43 1000.96 1000.93 1000.44 1000.83 1001.49 1001.23 1000.57 1001.38 1001.57 1001.97 1002.56 1003.24 1003.85 1004.27 1004.43
1010.51 1008.94 1008.39 1008.09 1006.30 1005.47 1005.41 1005.07 1004.90 1004.09 1003.62 1003.51 1003.26 1003.24 1002.98 1002.44 1002.26 1001.85 1001.77 1002.18 1002.41 1002.32 1001.78 1001.56 1001.65 1000.33 999.80 999.78 1000.70 1000.63 1000.18 1000.54 1000.37 1001.11 1000.66 1000.80 1000.63 1001.58 1001.87 1002.48 1002.99 1003.75 1004.57 1005.01 1005.37
1011.27 1009.04 1008.29 1007.94 1007.92 1006.99 1006.32 1005.28 1004.94 1004.66 1004.48 1004.28 1003.78 1003.56 1003.20 1002.78 1002.46 1001.93 1001.78 1001.96 1002.50 1002.43 1002.63 1002.31 1000.69 999.77 999.07 998.69 998.64 999.07 999.69 1000.11 1000.01 999.81 999.69 999.48 1000.05 1000.93 1001.65 1002.12 1002.91 1003.85 1004.87 1005.31 1005.72
1012.93 1012.55 1012.88 1009.51 1008.52 1008.69 1007.81 1007.06 1006.04 1005.19 1005.05 1004.79 1004.08 1003.99 1003.79 1003.05 1002.39 1002.08 1001.83 1001.71 1002.02 1002.44 1002.66 1001.98 1000.25 999.64 999.21 998.74 998.72 998.81 998.97 999.11 999.58 999.38 999.25 999.26 999.15 1000.18 1000.96 1001.73 1002.53 1003.55 1004.57 1005.25 1005.72
1015.25 1015.42 1013.98 1011.91 1010.62 1009.65 1009.08 1007.77 1007.70 1007.44 1006.95 1004.91 1005.08 1004.86 1004.76 1004.00 1003.45 1002.64 1002.26 1001.68 1001.14 1001.88 1001.61 1001.02 1000.16 999.80 999.30 998.90 998.86 998.71 998.53 998.53 998.75 998.85 998.97 999.14 998.89 999.13 1000.28 1001.47 1002.44 1003.37 1004.23 1004.87 1005.34
1018.30 1017.53 1016.25 1013.10 1011.53 1010.63 1010.30 1010.79 1009.79 1009.52 1007.79 1007.09 1007.03 1006.72 1005.46 1004.93 1005.03 1004.05 1003.09 1002.51 1001.68 1000.94 1000.43 1000.13 999.84 999.53 998.62 998.39 998.72 998.43 998.03 997.84 997.85 997.90 998.15 998.04 998.66 999.40 1000.13 1001.09 1002.08 1003.06 1003.95 1004.55 1004.90
Wind_Speed
11 9 8 8 8 7 6 6 6 6 6 6 7 8 8 8 8 8 9 3 4 12 10 11 7 5 5 3 2 2 5 4 3 2 5 9 6 4 1 9 5 7 1 10 19
13 9 8 7 8 8 6 6 6 5 6 6 7 8 8 9 9 11 8 9 13 14 13 12 8 6 4 2 3 5 4 4 5 3 2 5 2 5 5 9 5 7 5 17 19
14 10 8 7 8 8 7 5 6 6 7 7 6 7 8 10 8 5 7 11 13 14 7 4 5 5 6 4 5 3 3 4 2 5 6 6 6 4 4 7 5 9 13 18 16
13 11 9 8 7 8 7 6 6 6 8 7 7 8 9 8 1 7 7 10 11 7 8 5 6 5 6 4 3 5 5 2 4 2 4 9 8 4 1 7 5 5 15 19 18
14 11 10 8 8 7 6 7 6 7 7 7 8 8 8 8 6 8 11 10 14 8 7 6 7 8 8 2 3 2 5 2 2 4 6 7 3 5 5 3 5 13 17 17 17
15 12 10 8 8 7 6 7 7 8 7 7 8 10 7 4 4 7 9 12 7 6 2 3 5 1 2 3 5 3 2 2 5 7 6 4 5 4 6 6 11 15 17 16 15
16 13 10 8 8 7 6 6 7 7 6 6 7 6 8 7 1 7 8 4 5 0 1 0 4 7 1 5 3 6 4 2 4 5 3 5 6 8 7 9 13 16 15 14 12
16 14 12 9 7 7 6 6 6 7 6 5 6 6 2 3 6 7 8 6 5 3 2 2 3 1 4 5 4 4 3 6 6 5 3 6 7 8 8 11 15 15 13 12 11
16 15 13 10 7 8 7 6 6 7 5 6 8 6 6 3 11 7 6 5 6 4 4 4 4 2 6 8 6 8 3 8 4 5 2 8 5 10 10 12 14 14 14 13 11
17 14 12 10 8 8 8 6 2 6 6 6 4 7 5 4 8 6 4 5 2 3 7 7 6 9 6 9 5 2 1 4 4 7 7 4 4 11 11 12 14 13 13 12 13
20 16 13 11 9 8 6 6 8 7 6 6 4 3 5 6 9 9 6 6 5 6 9 3 11 2 10 7 5 6 4 4 3 3 5 4 6 10 12 12 13 14 13 13 12
18 16 14 11 8 8 7 5 6 6 2 3 3 3 2 3 6 9 8 9 7 10 3 9 5 9 5 5 6 7 6 3 2 4 7 5 7 11 13 13 13 14 14 15 15
17 15 13 10 7 6 6 4 2 5 7 7 4 6 7 9 6 14 13 6 8 10 9 8 11 8 7 7 5 5 7 2 6 5 6 4 8 11 14 12 13 15 14 15 15
18 15 11 7 4 4 4 1 4 5 8 8 8 7 9 8 7 7 13 5 6 8 9 8 3 6 9 6 11 5 4 3 5 8 1 8 4 12 16 16 16 17 16 16 16
21 16 10 11 4 5 5 3 5 6 1 5 7 5 5 11 13 10 13 7 9 10 7 10 6 11 13 8 7 5 6 5 6 7 6 9 7 10 15 16 20 19 18 18 18
23 17 4 6 5 3 1 3 5 9 6 7 7 9 12 12 7 8 11 10 8 12 10 23 13 8 8 4 4 3 4 6 5 7 5 5 8 11 12 19 20 20 20 18 18
23 11 9 2 2 3 4 5 9 5 4 7 7 10 14 10 9 10 15 16 12 11 13 14 9 3 8 7 5 7 8 3 8 7 7 4 6 7 8 5 16 20 20 19 17
20 4 7 4 1 4 6 9 3 4 5 4 3 7 11 12 11 8 11 13 14 13 12 9 9 8 9 8 7 3 7 6 5 6 6 4 2 7 4 6 5 12 19 19 19
14 5 4 3 4 5 7 6 5 5 3 1 7 9 7 11 5 10 11 13 13 14 14 7 10 4 5 1 7 7 6 6 9 5 6 3 5 9 7 7 7 9 12 17 19
3 4 4 3 6 7 7 3 1 2 3 4 4 4 9 12 10 9 9 8 17 14 16 7 10 8 3 5 6 11 5 5 4 4 6 5 3 7 8 8 7 7 10 17 16
5 5 5 1 5 7 7 2 2 1 3 4 2 3 6 6 12 10 5 6 6 14 16 16 9 4 4 11 6 7 7 5 6 5 6 5 8 6 4 5 6 6 4 9 15
5 5 3 4 7 2 6 2 3 4 3 3 6 7 5 5 8 7 10 10 1 9 13 18 10 11 15 8 3 8 10 9 7 4 2 6 3 3 3 4 4 8 7 8 11
4 3 3 5 7 8 2 6 4 8 4 2 4 3 3 6 6 7 3 2 5 10 7 8 12 13 13 15 9 10 11 8 7 3 8 7 1 3 7 6 4 10 10 10 11
5 2 3 1 3 8 5 7 8 2 8 7 7 5 6 9 8 6 7 4 7 10 6 6 15 15 12 14 6 13 10 8 12 9 11 10 9 9 9 8 8 11 12 12 12
6 6 4 4 3 8 6 6 8 7 2 4 5 9 4 7 7 11 9 9 8 7 6 11 16 16 17 17 9 9 9 6 11 12 9 12 9 5 10 11 10 12 15 14 13
6 6 6 4 7 8 3 0 9 10 9 2 7 9 10 7 11 11 10 11 12 8 9 13 9 6 12 18 11 17 16 12 11 11 10 14 18 10 9 12 12 14 15 16 15
6 2 5 3 7 6 5 8 10 14 7 6 9 14 10 8 12 17 13 15 18 10 11 10 9 8 13 12 11 14 16 15 15 13 12 14 8 6 12 15 16 15 16 16 16
Wind_Direction
350 343 327 315 302 300 302 299 305 317 319 320 326 331 327 323 289 213 243 85 165 156 213 162 192 210 228 260 256 278 238 137 125 141 101 144 167 112 134 147 182 163 200 136 149
354 353 333 318 303 300 304 304 304 311 314 315 327 325 323 321 254 248 114 134 150 170 180 182 195 195 236 236 260 252 238 72 64 289 234 152 212 167 175 164 160 159 162 141 155
356 353 340 326 307 304 307 307 307 315 311 313 324 317 305 296 256 79 124 158 165 195 193 189 202 224 265 212 195 155 132 140 49 317 234 154 170 201 222 208 179 174 152 154 162
354 352 342 328 316 306 314 318 311 313 312 319 322 313 305 243 0 76 124 158 172 206 174 175 208 243 252 231 163 144 159 178 345 25 129 157 162 127 296 6 298 184 163 164 168
356 349 339 330 319 314 314 312 313 312 311 320 319 313 268 220 33 49 138 154 174 197 210 228 249 261 259 131 182 234 150 82 107 124 117 138 116 107 82 36 150 151 161 167 174
355 353 341 330 325 318 321 317 324 314 312 316 314 306 255 222 35 130 144 163 172 206 154 254 314 286 103 218 263 85 174 160 153 128 144 158 134 221 90 109 129 148 161 166 174
354 349 343 333 325 326 329 314 303 294 297 305 305 286 255 54 82 150 158 162 160 74 49 300 258 251 184 134 86 148 174 245 163 162 131 170 137 90 114 129 139 151 159 159 171
354 349 347 336 326 324 318 300 288 282 285 284 276 253 34 22 192 188 173 158 163 148 127 190 316 208 281 142 147 176 232 242 150 201 145 241 93 129 143 149 152 151 162 173 182
353 349 347 338 322 324 312 294 271 268 255 258 236 258 116 155 182 153 233 159 142 159 132 162 264 296 185 215 171 208 224 205 162 214 246 238 104 140 160 170 161 167 174 182 182
352 349 344 341 327 324 309 264 213 248 208 219 260 230 173 162 158 184 192 200 233 248 208 226 237 229 190 252 352 328 285 177 229 156 222 204 109 151 168 181 174 177 184 187 194
350 348 345 340 333 326 265 196 196 170 217 337 64 52 136 108 156 187 178 205 214 246 258 137 268 9 14 337 337 291 278 318 84 141 247 215 167 173 173 185 183 187 190 195 197
342 343 339 332 323 305 271 266 29 2 186 229 228 184 162 175 162 181 194 218 224 250 215 221 254 17 332 323 290 242 248 209 138 174 232 181 212 173 186 192 193 196 195 201 193
341 337 336 330 313 250 254 269 338 298 251 145 178 197 171 206 209 174 201 218 251 259 255 281 333 334 292 313 294 220 258 232 310 160 205 211 214 186 187 200 195 205 209 202 205
338 333 323 325 257 159 222 141 211 277 230 123 179 158 170 229 198 119 207 238 225 292 312 287 40 292 309 18 335 14 345 224 198 232 183 222 118 192 184 198 204 205 206 206 203
334 325 298 244 347 216 76 315 257 218 275 130 133 91 161 217 122 184 196 212 289 278 276 289 315 334 313 15 325 3 284 223 212 239 291 170 247 113 192 199 204 207 201 204 198
334 326 240 170 221 293 196 169 222 226 82 131 132 179 182 206 167 138 173 220 271 271 237 243 272 288 346 7 6 157 159 172 202 257 215 91 290 158 180 218 201 202 204 203 197
336 325 208 222 68 114 223 215 238 23 157 132 151 183 198 179 168 183 190 194 232 224 238 249 256 324 269 243 174 241 254 223 200 182 52 75 258 19 162 172 202 200 201 202 201
335 182 199 277 217 301 214 242 1 58 42 103 180 184 197 186 207 192 192 220 220 264 288 272 233 209 157 265 335 236 328 305 310 19 3 120 262 86 149 152 172 205 197 200 200
322 184 202 135 212 237 247 251 31 30 13 33 165 182 172 187 253 210 219 227 220 210 248 237 237 140 231 212 272 106 227 11 291 183 229 78 102 160 162 172 182 199 194 206 198
268 209 72 13 196 242 251 356 353 358 327 220 273 258 175 187 207 212 224 238 231 225 233 256 271 243 98 198 215 267 356 239 180 322 323 82 122 53 181 188 185 188 209 201 196
233 211 80 279 234 235 259 54 262 11 304 287 331 198 252 174 216 202 244 231 233 202 227 247 239 172 185 215 254 169 219 208 288 286 319 303 89 43 138 142 172 149 163 183 176
295 209 55 276 236 256 250 351 9 270 173 285 292 290 258 202 223 236 243 231 18 197 215 230 274 241 242 186 164 289 294 293 286 108 265 297 22 103 135 135 120 120 132 138 161
3 9 107 275 253 214 193 259 279 286 251 219 276 266 317 252 254 227 253 74 220 224 242 191 220 259 230 219 200 241 246 246 300 295 266 281 43 98 156 155 131 134 134 132 132
299 230 117 198 345 308 318 258 267 183 278 287 288 247 253 251 234 281 251 172 177 233 46 247 249 244 264 240 258 195 221 230 251 255 270 258 283 154 184 178 155 146 149 138 140
357 53 8 8 86 327 307 317 293 279 244 260 228 252 284 262 264 253 275 250 192 141 221 235 248 247 251 266 198 254 279 244 240 257 265 284 291 106 186 187 169 158 158 151 152
12 348 340 307 303 296 173 252 309 1 312 261 271 23 302 281 299 306 321 281 270 172 218 225 260 291 263 260 237 256 260 268 241 262 262 270 276 302 176 169 162 162 165 167 163
12 17 286 53 330 300 50 349 330 328 273 303 5 322 295 351 326 311 301 285 282 257 216 219 245 228 263 212 236 241 243 239 249 242 254 263 25 119 163 181 175 166 170 170 164